AUA75K LATI-LOWW

Flight info

Callsign AUA75K
Flight time 1h 9m
Altitude 36000
Route INLO2R INLOT RETRA OBUTI OBUT2W
Aircraft A320/M-SDE3FGHIRWY/LB1

Departure

Time 2026-05-08 21:12
Airport Tirana International Airport Mother Teresa (LATI)

Arrival

Time 2026-05-08 22:21
Airport Vienna International Airport (LOWW)
Time Latitude Longitude Altitude Speed Heading
2026-05-08 20:44 41.42065 19.71493 122 ft 0 kts 264°
2026-05-08 21:06 41.42065 19.71495 122 ft 2 kts 264°
2026-05-08 21:06 41.42065 19.71527 121 ft 4 kts 281°
2026-05-08 21:06 41.42056 19.71558 117 ft 4 kts 321°
2026-05-08 21:06 41.42041 19.71568 118 ft 1 kts 354°
2026-05-08 21:07 41.42038 19.71568 118 ft 0 kts 354°
2026-05-08 21:09 41.42060 19.71566 120 ft 13 kts 354°
2026-05-08 21:09 41.42196 19.71548 120 ft 20 kts 354°
2026-05-08 21:09 41.42331 19.71529 120 ft 19 kts 354°
2026-05-08 21:10 41.42457 19.71511 117 ft 19 kts 354°
2026-05-08 21:10 41.42612 19.71489 115 ft 22 kts 354°
2026-05-08 21:10 41.42671 19.71546 118 ft 10 kts 84°
2026-05-08 21:10 41.42679 19.71692 118 ft 17 kts 85°
2026-05-08 21:11 41.42660 19.71825 117 ft 14 kts 129°
2026-05-08 21:11 41.42582 19.71908 116 ft 15 kts 167°
2026-05-08 21:11 41.42320 19.71944 118 ft 72 kts 175°
2026-05-08 21:11 41.41607 19.72038 122 ft 131 kts 174°
2026-05-08 21:12 41.40552 19.72155 315 ft 161 kts 176°
2026-05-08 21:12 41.39438 19.72243 1023 ft 160 kts 175°
2026-05-08 21:12 41.38333 19.72390 1665 ft 168 kts 174°
2026-05-08 21:12 41.37094 19.72571 2076 ft 190 kts 174°
2026-05-08 21:13 41.35694 19.72773 2522 ft 215 kts 175°
2026-05-08 21:13 41.34121 19.72994 3115 ft 239 kts 175°
2026-05-08 21:13 41.32420 19.73228 3955 ft 251 kts 175°
2026-05-08 21:13 41.30668 19.73467 4979 ft 256 kts 175°
2026-05-08 21:14 41.28879 19.73709 5989 ft 260 kts 176°
2026-05-08 21:14 41.27059 19.73934 6826 ft 265 kts 177°
2026-05-08 21:14 41.25223 19.73769 7726 ft 268 kts 198°
2026-05-08 21:14 41.23592 19.72576 8673 ft 271 kts 223°
2026-05-08 21:15 41.22459 19.70572 9612 ft 276 kts 246°
2026-05-08 21:15 41.22029 19.68084 10510 ft 281 kts 269°
2026-05-08 21:15 41.22420 19.65531 11427 ft 288 kts 293°
2026-05-08 21:15 41.23618 19.63384 12352 ft 298 kts 317°
2026-05-08 21:16 41.25525 19.62039 12794 ft 329 kts 343°
2026-05-08 21:16 41.27858 19.61420 13146 ft 354 kts 347°
2026-05-08 21:16 41.30359 19.60859 13634 ft 373 kts 348°
2026-05-08 21:16 41.33005 19.60294 13898 ft 396 kts 349°
2026-05-08 21:17 41.35780 19.59702 14344 ft 409 kts 348°
2026-05-08 21:17 41.38608 19.59089 15042 ft 414 kts 348°
2026-05-08 21:17 41.41466 19.58452 15760 ft 418 kts 347°
2026-05-08 21:17 41.44346 19.57794 16469 ft 422 kts 347°
2026-05-08 21:18 41.47251 19.57124 17135 ft 425 kts 347°
2026-05-08 21:18 41.50171 19.56447 17755 ft 428 kts 346°
2026-05-08 21:18 41.53119 19.55760 18330 ft 432 kts 346°
2026-05-08 21:18 41.56085 19.55070 18816 ft 434 kts 347°
2026-05-08 21:19 41.59067 19.54378 19253 ft 436 kts 347°
2026-05-08 21:19 41.62067 19.53684 19665 ft 439 kts 347°
2026-05-08 21:19 41.65044 19.52994 20077 ft 441 kts 347°
2026-05-08 21:19 41.68077 19.52289 20471 ft 444 kts 347°
2026-05-08 21:20 41.71126 19.51580 20851 ft 446 kts 347°
2026-05-08 21:20 41.74190 19.50868 21214 ft 448 kts 347°
2026-05-08 21:20 41.77271 19.50152 21568 ft 451 kts 347°
2026-05-08 21:20 41.80367 19.49430 21911 ft 453 kts 347°
2026-05-08 21:21 41.83479 19.48700 22249 ft 455 kts 347°
2026-05-08 21:21 41.86605 19.47964 22581 ft 457 kts 347°
2026-05-08 21:21 41.89738 19.47228 22909 ft 459 kts 347°
2026-05-08 21:21 41.92893 19.46490 23218 ft 461 kts 347°
2026-05-08 21:22 41.96062 19.45751 23525 ft 463 kts 347°
2026-05-08 21:22 41.99189 19.44734 23775 ft 462 kts 339°
2026-05-08 21:22 42.02225 19.43315 24024 ft 462 kts 338°
2026-05-08 21:22 42.05261 19.41875 24282 ft 463 kts 338°
2026-05-08 21:23 42.08302 19.40430 24528 ft 464 kts 338°
2026-05-08 21:23 42.11346 19.38982 24749 ft 464 kts 338°
2026-05-08 21:23 42.14394 19.37530 24963 ft 465 kts 337°
2026-05-08 21:23 42.17447 19.36076 25165 ft 466 kts 338°
2026-05-08 21:24 42.20506 19.34617 25360 ft 467 kts 338°
2026-05-08 21:24 42.23521 19.33026 25603 ft 464 kts 332°
2026-05-08 21:24 42.26398 19.31079 25861 ft 462 kts 330°
2026-05-08 21:24 42.29261 19.29120 26129 ft 461 kts 330°
2026-05-08 21:25 42.32118 19.27165 26408 ft 460 kts 330°
2026-05-08 21:25 42.34967 19.25215 26688 ft 458 kts 330°
2026-05-08 21:25 42.37804 19.23276 26967 ft 457 kts 330°
2026-05-08 21:25 42.40642 19.21336 27233 ft 458 kts 330°
2026-05-08 21:26 42.43493 19.19383 27416 ft 460 kts 330°
2026-05-08 21:26 42.46349 19.17423 27660 ft 460 kts 330°
2026-05-08 21:26 42.49204 19.15461 27936 ft 460 kts 330°
2026-05-08 21:26 42.52016 19.13529 28223 ft 459 kts 330°
2026-05-08 21:27 42.54861 19.11573 28521 ft 457 kts 330°
2026-05-08 21:27 42.57682 19.09632 28931 ft 453 kts 330°
2026-05-08 21:27 42.60484 19.07701 29316 ft 450 kts 329°
2026-05-08 21:27 42.63275 19.05770 29598 ft 452 kts 330°
2026-05-08 21:28 42.66083 19.03822 29786 ft 454 kts 330°
2026-05-08 21:28 42.68903 19.01871 30070 ft 455 kts 330°
2026-05-08 21:28 42.71720 18.99922 30345 ft 454 kts 330°
2026-05-08 21:28 42.74530 18.97972 30632 ft 452 kts 329°
2026-05-08 21:29 42.77321 18.96030 30917 ft 451 kts 329°
2026-05-08 21:29 42.80107 18.94088 31214 ft 449 kts 329°
2026-05-08 21:29 42.81948 18.92805 31411 ft 448 kts 329°
2026-05-08 21:29 42.84716 18.90874 31690 ft 447 kts 329°
2026-05-08 21:30 42.87491 18.88937 31878 ft 448 kts 329°
2026-05-08 21:30 42.90267 18.87003 32141 ft 448 kts 329°
2026-05-08 21:30 42.93971 18.84430 32523 ft 446 kts 329°
2026-05-08 21:30 42.95800 18.83158 32731 ft 444 kts 329°
2026-05-08 21:31 42.98547 18.81241 33057 ft 442 kts 329°
2026-05-08 21:31 43.01278 18.79326 33361 ft 440 kts 329°
2026-05-08 21:31 43.03990 18.77421 33631 ft 438 kts 329°
2026-05-08 21:31 43.06689 18.75525 33992 ft 435 kts 329°
2026-05-08 21:32 43.09382 18.73633 34224 ft 435 kts 329°
2026-05-08 21:32 43.12075 18.71739 34443 ft 435 kts 329°
2026-05-08 21:32 43.14766 18.69841 34642 ft 435 kts 329°
2026-05-08 21:32 43.17454 18.67942 34862 ft 435 kts 329°
2026-05-08 21:33 43.20141 18.66045 35095 ft 434 kts 328°
2026-05-08 21:33 43.22826 18.64151 35305 ft 434 kts 328°
2026-05-08 21:33 43.25509 18.62258 35495 ft 434 kts 328°
2026-05-08 21:33 43.28188 18.60360 35667 ft 433 kts 328°
2026-05-08 21:34 43.30832 18.58487 35852 ft 433 kts 328°
2026-05-08 21:34 43.33509 18.56589 36026 ft 433 kts 328°
2026-05-08 21:34 43.36185 18.54691 36236 ft 433 kts 328°
2026-05-08 21:34 43.38858 18.52791 36406 ft 432 kts 328°
2026-05-08 21:35 43.41525 18.50893 36551 ft 432 kts 328°
2026-05-08 21:35 43.44195 18.48986 36700 ft 432 kts 328°
2026-05-08 21:35 43.46866 18.47081 36849 ft 432 kts 328°
2026-05-08 21:35 43.49539 18.45180 37025 ft 433 kts 328°
2026-05-08 21:36 43.52217 18.43272 37170 ft 433 kts 328°
2026-05-08 21:36 43.54896 18.41360 37313 ft 434 kts 328°
2026-05-08 21:36 43.57575 18.39441 37495 ft 434 kts 328°
2026-05-08 21:36 43.60252 18.37520 37680 ft 433 kts 328°
2026-05-08 21:37 43.62927 18.35599 37850 ft 433 kts 328°
2026-05-08 21:37 43.65599 18.33679 38029 ft 433 kts 328°
2026-05-08 21:37 43.68270 18.31756 38082 ft 435 kts 328°
2026-05-08 21:38 43.73675 18.27865 38082 ft 441 kts 328°
2026-05-08 21:38 43.79141 18.23930 38085 ft 445 kts 328°
2026-05-08 21:39 43.84651 18.19953 38080 ft 448 kts 328°
2026-05-08 21:39 43.90178 18.15948 38091 ft 449 kts 328°
2026-05-08 21:40 43.95734 18.11923 38077 ft 452 kts 328°
2026-05-08 21:40 44.01308 18.07873 38080 ft 453 kts 328°
2026-05-08 21:41 44.09696 18.01752 38075 ft 454 kts 328°
2026-05-08 21:41 44.15254 17.97689 38083 ft 455 kts 328°
2026-05-08 21:42 44.20865 17.93578 38076 ft 456 kts 328°
2026-05-08 21:42 44.26493 17.89444 38077 ft 458 kts 328°
2026-05-08 21:43 44.32136 17.85304 38080 ft 458 kts 328°
2026-05-08 21:43 44.37774 17.81150 38101 ft 459 kts 328°
2026-05-08 21:44 44.43429 17.76973 38096 ft 460 kts 328°
2026-05-08 21:44 44.49093 17.72778 38094 ft 461 kts 328°
2026-05-08 21:45 44.54759 17.68568 38095 ft 461 kts 328°
2026-05-08 21:45 44.60417 17.64359 38092 ft 461 kts 328°
2026-05-08 21:46 44.66089 17.60124 38081 ft 462 kts 328°
2026-05-08 21:46 44.71773 17.55875 38083 ft 463 kts 328°
2026-05-08 21:47 44.77462 17.51622 38084 ft 463 kts 328°
2026-05-08 21:47 44.83147 17.47355 38083 ft 463 kts 328°
2026-05-08 21:48 44.88836 17.43077 38083 ft 464 kts 328°
2026-05-08 21:48 44.94537 17.38783 38080 ft 464 kts 328°
2026-05-08 21:49 45.00229 17.34483 38078 ft 464 kts 328°
2026-05-08 21:49 45.05920 17.30173 38081 ft 464 kts 328°
2026-05-08 21:50 45.11581 17.25871 38077 ft 465 kts 328°
2026-05-08 21:50 45.17290 17.21529 38079 ft 466 kts 328°
2026-05-08 21:51 45.22995 17.17179 38097 ft 466 kts 328°
2026-05-08 21:51 45.28707 17.12812 38111 ft 466 kts 328°
2026-05-08 21:52 45.34426 17.08435 38103 ft 467 kts 328°
2026-05-08 21:52 45.40146 17.04037 38100 ft 467 kts 328°
2026-05-08 21:53 45.45867 16.99627 38098 ft 468 kts 328°
2026-05-08 21:53 45.51591 16.95209 38113 ft 468 kts 328°
2026-05-08 21:54 45.57318 16.90788 38107 ft 468 kts 328°
2026-05-08 21:54 45.63034 16.86365 38105 ft 468 kts 328°
2026-05-08 21:55 45.68753 16.81925 38103 ft 468 kts 328°
2026-05-08 21:56 45.77326 16.75245 38103 ft 468 kts 328°
2026-05-08 21:56 45.83042 16.70772 38117 ft 468 kts 327°
2026-05-08 21:57 45.88749 16.66284 38111 ft 468 kts 327°
2026-05-08 21:57 45.94464 16.61801 38078 ft 466 kts 328°
2026-05-08 21:58 46.00164 16.57336 38079 ft 467 kts 327°
2026-05-08 21:58 46.05857 16.52833 38082 ft 467 kts 327°
2026-05-08 21:59 46.11556 16.48332 38083 ft 467 kts 328°
2026-05-08 21:59 46.17237 16.43832 38087 ft 466 kts 327°
2026-05-08 22:00 46.22923 16.39321 38085 ft 467 kts 327°
2026-05-08 22:00 46.28579 16.34819 38091 ft 467 kts 327°
2026-05-08 22:01 46.34274 16.30260 38091 ft 468 kts 327°
2026-05-08 22:01 46.40368 16.26834 38090 ft 476 kts 345°
2026-05-08 22:02 46.46929 16.25270 38106 ft 479 kts 348°
2026-05-08 22:02 46.53503 16.23720 38100 ft 479 kts 347°
2026-05-08 22:02 46.56760 16.22942 37912 ft 471 kts 347°
2026-05-08 22:03 46.59973 16.22176 37355 ft 465 kts 347°
2026-05-08 22:03 46.63146 16.21422 36826 ft 459 kts 347°
2026-05-08 22:03 46.66286 16.20677 36330 ft 455 kts 347°
2026-05-08 22:03 46.69397 16.19939 35829 ft 451 kts 347°
2026-05-08 22:04 46.72482 16.19202 35332 ft 448 kts 347°
2026-05-08 22:04 46.75576 16.18460 34850 ft 458 kts 347°
2026-05-08 22:04 46.78751 16.17691 34373 ft 465 kts 347°
2026-05-08 22:04 46.81959 16.16915 33863 ft 472 kts 347°
2026-05-08 22:05 46.85171 16.16140 33236 ft 474 kts 347°
2026-05-08 22:05 46.88421 16.15366 32629 ft 472 kts 347°
2026-05-08 22:05 46.91649 16.14600 32025 ft 468 kts 347°
2026-05-08 22:05 46.94849 16.13840 31442 ft 464 kts 347°
2026-05-08 22:06 46.98023 16.13082 30865 ft 467 kts 347°
2026-05-08 22:06 47.01275 16.12293 30299 ft 477 kts 347°
2026-05-08 22:06 47.04549 16.11495 29678 ft 477 kts 347°
2026-05-08 22:06 47.07850 16.10690 29025 ft 483 kts 347°
2026-05-08 22:07 47.11161 16.09884 28403 ft 481 kts 347°
2026-05-08 22:07 47.14453 16.09085 27791 ft 477 kts 348°
2026-05-08 22:07 47.17717 16.08299 27185 ft 473 kts 348°
2026-05-08 22:07 47.20952 16.07520 26597 ft 469 kts 348°
2026-05-08 22:08 47.24154 16.06749 26026 ft 464 kts 348°
2026-05-08 22:08 47.27331 16.05980 25464 ft 460 kts 348°
2026-05-08 22:08 47.30477 16.05214 24916 ft 456 kts 348°
2026-05-08 22:08 47.33596 16.04493 24371 ft 453 kts 352°
2026-05-08 22:09 47.36738 16.04399 23837 ft 451 kts
2026-05-08 22:09 47.39828 16.05127 23234 ft 449 kts 13°
2026-05-08 22:09 47.42791 16.06514 22611 ft 445 kts 18°
2026-05-08 22:09 47.45704 16.07965 21993 ft 440 kts 18°
2026-05-08 22:10 47.48590 16.09402 21396 ft 435 kts 18°
2026-05-08 22:10 47.51444 16.10824 20815 ft 430 kts 17°
2026-05-08 22:10 47.54271 16.12227 20228 ft 426 kts 17°
2026-05-08 22:10 47.57146 16.13650 19611 ft 446 kts 17°
2026-05-08 22:11 47.60105 16.15115 18943 ft 449 kts 17°
2026-05-08 22:11 47.63053 16.16582 18261 ft 445 kts 18°
2026-05-08 22:11 47.65969 16.18038 17511 ft 439 kts 18°
2026-05-08 22:11 47.68843 16.19475 16779 ft 434 kts 18°
2026-05-08 22:12 47.71687 16.20899 16061 ft 429 kts 18°
2026-05-08 22:12 47.74374 16.22603 15363 ft 425 kts 31°
2026-05-08 22:12 47.76592 16.25451 14679 ft 422 kts 50°
2026-05-08 22:12 47.78047 16.29200 14013 ft 419 kts 68°
2026-05-08 22:13 47.79026 16.33259 13283 ft 415 kts 70°
2026-05-08 22:13 47.79970 16.37291 12552 ft 411 kts 70°
2026-05-08 22:13 47.80899 16.41290 11830 ft 407 kts 70°
2026-05-08 22:13 47.81819 16.45254 11134 ft 404 kts 70°
2026-05-08 22:14 47.82734 16.49184 10442 ft 400 kts 70°
2026-05-08 22:14 47.83643 16.53081 9747 ft 397 kts 70°
2026-05-08 22:14 47.84546 16.56945 9015 ft 393 kts 70°
2026-05-08 22:14 47.85456 16.60761 8296 ft 389 kts 67°
2026-05-08 22:15 47.86885 16.64116 7595 ft 383 kts 45°
2026-05-08 22:15 47.88978 16.66498 6916 ft 380 kts 31°
2026-05-08 22:15 47.91209 16.68584 6215 ft 373 kts 31°
2026-05-08 22:15 47.93336 16.70534 5693 ft 345 kts 31°
2026-05-08 22:16 47.95312 16.72330 5198 ft 321 kts 31°
2026-05-08 22:16 47.97166 16.74016 4663 ft 304 kts 31°
2026-05-08 22:16 47.98935 16.75629 4033 ft 292 kts 31°
2026-05-08 22:16 48.00643 16.77188 3414 ft 282 kts 30°
2026-05-08 22:17 48.02430 16.78030 3084 ft 262 kts 359°
2026-05-08 22:17 48.04023 16.77245 3017 ft 235 kts 321°
2026-05-08 22:17 48.05005 16.75473 3027 ft 210 kts 300°
2026-05-08 22:17 48.05632 16.73676 2953 ft 183 kts 297°
2026-05-08 22:18 48.06163 16.72052 2736 ft 166 kts 297°
2026-05-08 22:18 48.06647 16.70574 2555 ft 152 kts 297°
2026-05-08 22:18 48.07103 16.69183 2363 ft 147 kts 298°
2026-05-08 22:18 48.07547 16.67830 2169 ft 144 kts 298°
2026-05-08 22:19 48.07988 16.66482 1976 ft 144 kts 298°
2026-05-08 22:19 48.08428 16.65138 1777 ft 143 kts 299°
2026-05-08 22:19 48.08866 16.63803 1591 ft 142 kts 298°
2026-05-08 22:19 48.09298 16.62482 1395 ft 141 kts 298°
2026-05-08 22:20 48.09724 16.61177 1196 ft 139 kts 298°
2026-05-08 22:20 48.10144 16.59892 1006 ft 137 kts 298°
2026-05-08 22:20 48.10560 16.58619 818 ft 135 kts 298°
2026-05-08 22:20 48.10970 16.57361 628 ft 131 kts 298°
2026-05-08 22:21 48.11313 16.56312 612 ft 89 kts 296°
2026-05-08 22:21 48.11468 16.55838 614 ft 65 kts 296°
2026-05-08 22:21 48.11605 16.55442 614 ft 27 kts 304°
2026-05-08 22:21 48.11730 16.55238 622 ft 23 kts 320°
2026-05-08 22:22 48.11859 16.55149 615 ft 18 kts 24°
2026-05-08 22:22 48.11848 16.55322 610 ft 22 kts 118°
2026-05-08 22:22 48.11773 16.55545 616 ft 25 kts 116°
2026-05-08 22:22 48.11694 16.55789 615 ft 27 kts 115°
2026-05-08 22:23 48.11611 16.56038 613 ft 23 kts 116°
2026-05-08 22:23 48.11631 16.56211 622 ft 18 kts 41°
2026-05-08 22:23 48.11744 16.56314 615 ft 17 kts 46°
2026-05-08 22:23 48.11721 16.56486 610 ft 18 kts 114°
2026-05-08 22:24 48.11662 16.56663 614 ft 20 kts 117°
2026-05-08 22:24 48.11602 16.56847 616 ft 17 kts 116°
2026-05-08 22:24 48.11600 16.56890 613 ft 1 kts 42°
2026-05-08 22:24 48.11629 16.56934 612 ft 7 kts 31°
2026-05-08 22:25 48.11657 16.56954 617 ft 2 kts 26°
2026-05-08 22:25 48.11658 16.56955 618 ft 0 kts 26°